This is the latest recevied weather packets stored in our database for station/object KA0EGE. If no packets are shown the sender has not sent any weather packets the latest 10 day(s).
| Time | Temp. | Humidity | Pressure | Rain* | Wind** | Luminosity | Snow |
|---|---|---|---|---|---|---|---|
| 1777140496 | 21.11° C | 98% | 1011.6 hPa | 0 mm | - | 220 W/m² | - |
| 1777140195 | 21.11° C | 97% | 1012 hPa | 0 mm | - | 198 W/m² | - |
| 1777139891 | 21.11° C | 98% | 1012 hPa | 0 mm | - | 178 W/m² | - |
| 1777139589 | 21.11° C | 99% | 1012.4 hPa | 0 mm | - | 161 W/m² | - |
| 1777139288 | 21.67° C | 99% | 1012.4 hPa | 0 mm | - | 144 W/m² | - |
| 1777138985 | 21.67° C | 99% | 1012.4 hPa | 0 mm | - | 142 W/m² | - |
| 1777138681 | 21.67° C | 99% | 1012.6 hPa | 0 mm | - | 140 W/m² | - |
| 1777138377 | 21.67° C | 99% | 1012.7 hPa | 0 mm | - | 142 W/m² | - |
| 1777138074 | 21.67° C | 99% | 1012.8 hPa | 0 mm | - | 143 W/m² | - |
| 1777137770 | 21.11° C | 99% | 1013.1 hPa | 0 mm | - | 143 W/m² | - |
| 1777137466 | 21.11° C | 99% | 1013.1 hPa | 0 mm | - | 120 W/m² | - |
| 1777137163 | 21.11° C | 99% | 1013.2 hPa | 0 mm | - | 96 W/m² | - |
| 1777136860 | 21.11° C | 99% | 1013 hPa | 0 mm | - | 100 W/m² | - |
| 1777136556 | 21.11° C | 99% | 1013.4 hPa | 0 mm | - | 106 W/m² | - |
| 1777136255 | 21.11° C | 99% | 1013.7 hPa | 0 mm | - | 102 W/m² | - |
| 1777135952 | 21.11° C | 99% | 1013.9 hPa | 0 mm | - | 119 W/m² | - |
| 1777135646 | 21.11° C | 99% | 1014.1 hPa | 0 mm | - | 146 W/m² | - |
| 1777135343 | 21.11° C | 99% | 1014.2 hPa | 0 mm | - | 156 W/m² | - |
| 1777135040 | 21.11° C | 99% | 1014.2 hPa | 0 mm | - | 163 W/m² | - |
| 1777134738 | 20.56° C | 99% | 1014.4 hPa | 0 mm | - | 173 W/m² | - |
| 1777134433 | 20.56° C | 99% | 1014.4 hPa | 0 mm | - | 174 W/m² | - |
| 1777134130 | 20.56° C | 99% | 1014.6 hPa | 1.27 mm | - | 158 W/m² | - |
| 1777133827 | 20.56° C | 98% | 1014.4 hPa | 14.99 mm | - | 124 W/m² | - |
| 1777133522 | 20° C | 97% | 1014.6 hPa | 30.73 mm | - | 100 W/m² | - |
| 1777133216 | 21.67° C | 93% | 1015.1 hPa | 21.08 mm | - | 59 W/m² | - |
* Rain latest hour (hover to see other rain measurements)
** Current wind speed in m/s (hover to see current wind gust speed)